contact:dominique.lefevre@mio.osupytheas.fr, maurice.libes@osupytheas.fr, didier.mallarino@osupytheas.fr
Project:EMSO http://www.emso-fr.org/EMSO-France
Depth: 2436.0 m
Title:EMSO Ligure Ouest : Data MII capteur CSTAR
DateTime,Latitude,Longitude,Instrument_Serial,Reference_Counts,Signal_Counts,Corrected_Signal_raw_counts,Calculated_Beam_c_inverse_meters,Internal_thermistor_counts
DateTime,Latitude,Longitude,Instrument_Serial,Reference_Counts,Signal_Counts,Corrected_Signal_raw_counts,Calculated_Beam_c_inverse_meters,Internal_thermistor_counts
2023-06-30T00:00:57,42.805,6.029,CST-1368DR,4273,4762,11828,01.111,552
2023-06-30T00:03:58,42.805,6.029,CST-1368DR,4273,4762,11828,01.111,552
2023-06-30T00:07:00,42.805,6.029,CST-1368DR,4273,4761,11825,01.112,552
2023-06-30T00:10:01,42.805,6.029,CST-1368DR,4273,4762,11829,01.111,552
2023-06-30T00:13:03,42.805,6.029,CST-1368DR,4273,4761,11827,01.112,552
2023-06-30T00:16:05,42.805,6.029,CST-1368DR,4273,4761,11826,01.112,552
2023-06-30T00:19:06,42.805,6.029,CST-1368DR,4273,4761,11825,01.112,552
2023-06-30T00:22:08,42.805,6.029,CST-1368DR,4273,4760,11824,01.113,552
2023-06-30T00:25:09,42.805,6.029,CST-1368DR,4273,4762,11829,01.111,552
2023-06-30T00:28:11,42.805,6.029,CST-1368DR,4273,4761,11825,01.112,552
2023-06-30T00:31:13,42.805,6.029,CST-1368DR,4273,4761,11826,01.112,552
2023-06-30T00:34:14,42.805,6.029,CST-1368DR,4273,4761,11826,01.112,552
2023-06-30T00:37:16,42.805,6.029,CST-1368DR,4273,4761,11826,01.112,552
2023-06-30T00:40:17,42.805,6.029,CST-1368DR,4273,4760,11824,01.113,552
2023-06-30T00:43:19,42.805,6.029,CST-1368DR,4273,4761,11825,01.112,552
2023-06-30T00:46:20,42.805,6.029,CST-1368DR,4273,4761,11825,01.112,552
2023-06-30T00:49:22,42.805,6.029,CST-1368DR,4273,4760,11824,01.113,552
2023-06-30T00:52:24,42.805,6.029,CST-1368DR,4273,4760,11824,01.113,552
2023-06-30T00:55:25,42.805,6.029,CST-1368DR,4273,4760,11824,01.113,552
2023-06-30T00:58:27,42.805,6.029,CST-1368DR,4273,4761,11826,01.112,552
2023-06-30T01:01:28,42.805,6.029,CST-1368DR,4273,4761,11826,01.112,552
2023-06-30T01:04:30,42.805,6.029,CST-1368DR,4273,4761,11826,01.112,552
2023-06-30T01:07:31,42.805,6.029,CST-1368DR,4273,4761,11826,01.112,552
2023-06-30T01:10:33,42.805,6.029,CST-1368DR,4273,4761,11826,01.112,552
2023-06-30T01:13:35,42.805,6.029,CST-1368DR,4273,4761,11825,01.112,552
2023-06-30T01:16:36,42.805,6.029,CST-1368DR,4273,4761,11825,01.112,552
2023-06-30T01:19:38,42.805,6.029,CST-1368DR,4273,4761,11826,01.112,552
2023-06-30T01:22:39,42.805,6.029,CST-1368DR,4273,4760,11824,01.113,552
2023-06-30T01:25:41,42.805,6.029,CST-1368DR,4273,4761,11825,01.112,552
2023-06-30T01:28:42,42.805,6.029,CST-1368DR,4273,4761,11825,01.112,552
2023-06-30T01:31:44,42.805,6.029,CST-1368DR,4273,4761,11826,01.112,552
2023-06-30T01:34:46,42.805,6.029,CST-1368DR,4273,4761,11825,01.112,552
2023-06-30T01:37:47,42.805,6.029,CST-1368DR,4273,4761,11827,01.112,552
2023-06-30T01:40:49,42.805,6.029,CST-1368DR,4273,4760,11824,01.113,552
2023-06-30T01:43:50,42.805,6.029,CST-1368DR,4273,4761,11826,01.112,552
2023-06-30T01:46:52,42.805,6.029,CST-1368DR,4273,4761,11826,01.112,552
2023-06-30T01:49:54,42.805,6.029,CST-1368DR,4273,4760,11824,01.113,552
2023-06-30T01:52:55,42.805,6.029,CST-1368DR,4273,4760,11824,01.113,552
2023-06-30T01:55:57,42.805,6.029,CST-1368DR,4273,4760,11824,01.113,552
2023-06-30T01:58:58,42.805,6.029,CST-1368DR,4273,4761,11825,01.112,552
2023-06-30T02:02:00,42.805,6.029,CST-1368DR,4273,4761,11826,01.112,552
2023-06-30T02:05:01,42.805,6.029,CST-1368DR,4273,4761,11826,01.112,552
2023-06-30T02:08:03,42.805,6.029,CST-1368DR,4273,4761,11826,01.112,552
2023-06-30T02:11:05,42.805,6.029,CST-1368DR,4273,4760,11824,01.113,552
2023-06-30T02:14:06,42.805,6.029,CST-1368DR,4273,4761,11825,01.112,552
2023-06-30T02:17:08,42.805,6.029,CST-1368DR,4273,4761,11825,01.112,552
2023-06-30T02:20:09,42.805,6.029,CST-1368DR,4273,4761,11827,01.112,552
2023-06-30T02:23:11,42.805,6.029,CST-1368DR,4273,4761,11826,01.112,552
2023-06-30T02:26:12,42.805,6.029,CST-1368DR,4273,4760,11824,01.113,552
2023-06-30T02:29:14,42.805,6.029,CST-1368DR,4273,4761,11826,01.112,552
2023-06-30T02:32:16,42.805,6.029,CST-1368DR,4273,4761,11825,01.112,552
2023-06-30T02:35:17,42.805,6.029,CST-1368DR,4273,4760,11824,01.113,552
2023-06-30T02:38:19,42.805,6.029,CST-1368DR,4273,4761,11826,01.112,552
2023-06-30T02:41:20,42.805,6.029,CST-1368DR,4273,4761,11825,01.112,552
2023-06-30T02:44:22,42.805,6.029,CST-1368DR,4273,4761,11825,01.112,552
2023-06-30T02:47:24,42.805,6.029,CST-1368DR,4273,4760,11824,01.113,552
2023-06-30T02:50:25,42.805,6.029,CST-1368DR,4273,4760,11824,01.113,552
2023-06-30T02:53:27,42.805,6.029,CST-1368DR,4273,4760,11824,01.113,552
2023-06-30T02:56:28,42.805,6.029,CST-1368DR,4273,4761,11827,01.112,552
2023-06-30T02:59:30,42.805,6.029,CST-1368DR,4273,4760,11822,01.113,552
2023-06-30T03:02:31,42.805,6.029,CST-1368DR,4273,4761,11826,01.112,552
2023-06-30T03:05:33,42.805,6.029,CST-1368DR,4273,4761,11826,01.112,552
2023-06-30T03:08:35,42.805,6.029,CST-1368DR,4273,4761,11826,01.112,552
2023-06-30T03:11:36,42.805,6.029,CST-1368DR,4273,4761,11825,01.112,552
2023-06-30T03:14:38,42.805,6.029,CST-1368DR,4273,4760,11824,01.113,552
2023-06-30T03:17:39,42.805,6.029,CST-1368DR,4273,4762,11828,01.111,552
2023-06-30T03:20:41,42.805,6.029,CST-1368DR,4273,4760,11824,01.113,552
2023-06-30T03:23:42,42.805,6.029,CST-1368DR,4273,4760,11824,01.113,552
2023-06-30T03:26:44,42.805,6.029,CST-1368DR,4273,4761,11825,01.112,552
2023-06-30T03:29:46,42.805,6.029,CST-1368DR,4273,4760,11824,01.113,552
2023-06-30T03:32:47,42.805,6.029,CST-1368DR,4273,4760,11824,01.113,552
2023-06-30T03:35:49,42.805,6.029,CST-1368DR,4273,4760,11824,01.113,552
2023-06-30T03:38:50,42.805,6.029,CST-1368DR,4273,4761,11826,01.112,552
2023-06-30T03:41:52,42.805,6.029,CST-1368DR,4273,4760,11824,01.113,552
2023-06-30T03:44:54,42.805,6.029,CST-1368DR,4273,4760,11824,01.113,552
2023-06-30T03:47:55,42.805,6.029,CST-1368DR,4273,4760,11824,01.113,552
2023-06-30T03:50:57,42.805,6.029,CST-1368DR,4273,4761,11826,01.112,552
2023-06-30T03:53:58,42.805,6.029,CST-1368DR,4273,4760,11824,01.113,552
2023-06-30T03:57:00,42.805,6.029,CST-1368DR,4273,4760,11822,01.113,552
2023-06-30T04:00:01,42.805,6.029,CST-1368DR,4273,4759,11821,01.114,552
2023-06-30T04:03:03,42.805,6.029,CST-1368DR,4273,4760,11824,01.113,552
2023-06-30T04:06:05,42.805,6.029,CST-1368DR,4273,4760,11824,01.113,552
2023-06-30T04:09:06,42.805,6.029,CST-1368DR,4273,4760,11822,01.113,552
2023-06-30T04:12:08,42.805,6.029,CST-1368DR,4273,4761,11826,01.112,552
2023-06-30T04:15:09,42.805,6.029,CST-1368DR,4273,4761,11826,01.112,552
2023-06-30T04:18:11,42.805,6.029,CST-1368DR,4273,4760,11823,01.113,552
2023-06-30T04:21:13,42.805,6.029,CST-1368DR,4273,4761,11826,01.112,552
2023-06-30T04:24:14,42.805,6.029,CST-1368DR,4273,4763,11830,01.111,552
2023-06-30T04:27:16,42.805,6.029,CST-1368DR,4273,4761,11826,01.112,552
2023-06-30T04:30:19,42.805,6.029,CST-1368DR,4273,4760,11824,01.113,552
2023-06-30T04:33:21,42.805,6.029,CST-1368DR,4273,4760,11824,01.113,552
2023-06-30T04:36:22,42.805,6.029,CST-1368DR,4273,4761,11825,01.112,552
2023-06-30T04:39:24,42.805,6.029,CST-1368DR,4273,4760,11823,01.113,552
2023-06-30T04:42:26,42.805,6.029,CST-1368DR,4273,4760,11822,01.113,552
2023-06-30T04:45:27,42.805,6.029,CST-1368DR,4273,4760,11823,01.113,552
2023-06-30T04:48:29,42.805,6.029,CST-1368DR,4273,4760,11823,01.113,552
2023-06-30T04:51:30,42.805,6.029,CST-1368DR,4273,4759,11822,01.113,552
2023-06-30T04:54:32,42.805,6.029,CST-1368DR,4273,4760,11822,01.113,552
2023-06-30T04:57:34,42.805,6.029,CST-1368DR,4273,4759,11821,01.114,552
2023-06-30T05:00:35,42.805,6.029,CST-1368DR,4273,4760,11824,01.113,552
2023-06-30T05:03:37,42.805,6.029,CST-1368DR,4273,4760,11824,01.113,552
2023-06-30T05:06:38,42.805,6.029,CST-1368DR,4273,4761,11826,01.112,552
2023-06-30T05:09:40,42.805,6.029,CST-1368DR,4273,4760,11823,01.113,552
2023-06-30T05:12:41,42.805,6.029,CST-1368DR,4273,4760,11824,01.113,552
2023-06-30T05:15:43,42.805,6.029,CST-1368DR,4273,4760,11824,01.113,552
2023-06-30T05:18:45,42.805,6.029,CST-1368DR,4273,4761,11825,01.112,552
2023-06-30T05:21:46,42.805,6.029,CST-1368DR,4273,4760,11824,01.113,552
2023-06-30T05:24:48,42.805,6.029,CST-1368DR,4273,4759,11821,01.114,552
2023-06-30T05:27:49,42.805,6.029,CST-1368DR,4273,4761,11826,01.112,552
2023-06-30T05:30:51,42.805,6.029,CST-1368DR,4273,4761,11826,01.112,552
2023-06-30T05:33:52,42.805,6.029,CST-1368DR,4273,4760,11823,01.113,552
2023-06-30T05:36:54,42.805,6.029,CST-1368DR,4273,4760,11822,01.113,552
2023-06-30T05:39:56,42.805,6.029,CST-1368DR,4273,4760,11824,01.113,552
2023-06-30T05:42:57,42.805,6.029,CST-1368DR,4273,4761,11827,01.112,552
2023-06-30T05:45:59,42.805,6.029,CST-1368DR,4273,4760,11824,01.113,552
2023-06-30T05:49:00,42.805,6.029,CST-1368DR,4273,4760,11824,01.113,552
2023-06-30T05:52:02,42.805,6.029,CST-1368DR,4273,4761,11826,01.112,552
2023-06-30T05:55:03,42.805,6.029,CST-1368DR,4273,4760,11824,01.113,552
2023-06-30T05:58:05,42.805,6.029,CST-1368DR,4273,4761,11826,01.112,552
2023-06-30T06:01:07,42.805,6.029,CST-1368DR,4273,4762,11828,01.111,552
2023-06-30T06:04:08,42.805,6.029,CST-1368DR,4273,4761,11825,01.112,552
2023-06-30T06:07:10,42.805,6.029,CST-1368DR,4273,4760,11824,01.113,552
2023-06-30T06:10:11,42.805,6.029,CST-1368DR,4273,4761,11826,01.112,552
2023-06-30T06:13:13,42.805,6.029,CST-1368DR,4273,4760,11823,01.113,552
2023-06-30T06:16:15,42.805,6.029,CST-1368DR,4273,4760,11824,01.113,552
2023-06-30T06:19:16,42.805,6.029,CST-1368DR,4273,4760,11824,01.113,552
2023-06-30T06:22:18,42.805,6.029,CST-1368DR,4273,4761,11825,01.112,552
2023-06-30T06:25:19,42.805,6.029,CST-1368DR,4273,4760,11823,01.113,552
2023-06-30T06:28:21,42.805,6.029,CST-1368DR,4273,4762,11829,01.111,552
2023-06-30T06:31:22,42.805,6.029,CST-1368DR,4273,4761,11826,01.112,552
2023-06-30T06:34:24,42.805,6.029,CST-1368DR,4273,4760,11822,01.113,552
2023-06-30T06:37:26,42.805,6.029,CST-1368DR,4273,4760,11824,01.113,552
2023-06-30T06:40:27,42.805,6.029,CST-1368DR,4273,4760,11823,01.113,552
2023-06-30T06:43:29,42.805,6.029,CST-1368DR,4273,4759,11821,01.114,552
2023-06-30T06:46:30,42.805,6.029,CST-1368DR,4273,4760,11822,01.113,552
2023-06-30T06:49:32,42.805,6.029,CST-1368DR,4273,4759,11820,01.114,552
2023-06-30T06:52:33,42.805,6.029,CST-1368DR,4273,4759,11820,01.114,552
2023-06-30T06:55:35,42.805,6.029,CST-1368DR,4273,4760,11822,01.113,552
2023-06-30T06:58:37,42.805,6.029,CST-1368DR,4273,4760,11822,01.113,552
2023-06-30T07:01:38,42.805,6.029,CST-1368DR,4273,4759,11820,01.114,552
2023-06-30T07:04:40,42.805,6.029,CST-1368DR,4273,4759,11821,01.114,552
2023-06-30T07:07:41,42.805,6.029,CST-1368DR,4273,4759,11821,01.114,552
2023-06-30T07:10:43,42.805,6.029,CST-1368DR,4273,4759,11820,01.114,552
2023-06-30T07:13:45,42.805,6.029,CST-1368DR,4273,4759,11821,01.114,552
2023-06-30T07:16:46,42.805,6.029,CST-1368DR,4273,4759,11821,01.114,552
2023-06-30T07:19:48,42.805,6.029,CST-1368DR,4273,4760,11822,01.113,552
2023-06-30T07:22:49,42.805,6.029,CST-1368DR,4273,4759,11821,01.114,552
2023-06-30T07:25:51,42.805,6.029,CST-1368DR,4273,4759,11821,01.114,552
2023-06-30T07:28:52,42.805,6.029,CST-1368DR,4273,4760,11822,01.113,552
2023-06-30T07:31:54,42.805,6.029,CST-1368DR,4273,4760,11823,01.113,552
2023-06-30T07:34:56,42.805,6.029,CST-1368DR,4273,4759,11822,01.113,552
2023-06-30T07:37:57,42.805,6.029,CST-1368DR,4273,4759,11822,01.113,552
2023-06-30T07:40:59,42.805,6.029,CST-1368DR,4273,4760,11822,01.113,552
2023-06-30T07:44:00,42.805,6.029,CST-1368DR,4273,4760,11823,01.113,552
2023-06-30T07:47:02,42.805,6.029,CST-1368DR,4273,4759,11822,01.113,552
2023-06-30T07:50:03,42.805,6.029,CST-1368DR,4273,4760,11823,01.113,552
2023-06-30T07:53:05,42.805,6.029,CST-1368DR,4273,4760,11823,01.113,552
2023-06-30T07:56:07,42.805,6.029,CST-1368DR,4273,4759,11821,01.114,552
2023-06-30T07:59:08,42.805,6.029,CST-1368DR,4273,4759,11821,01.114,552
2023-06-30T08:02:10,42.805,6.029,CST-1368DR,4273,4760,11824,01.113,552
2023-06-30T08:05:11,42.805,6.029,CST-1368DR,4273,4761,11825,01.112,552
2023-06-30T08:08:13,42.805,6.029,CST-1368DR,4273,4759,11821,01.114,552
2023-06-30T08:11:15,42.805,6.029,CST-1368DR,4273,4760,11824,01.113,552
2023-06-30T08:14:16,42.805,6.029,CST-1368DR,4273,4760,11824,01.113,552
2023-06-30T08:17:18,42.805,6.029,CST-1368DR,4273,4760,11824,01.113,552
2023-06-30T08:20:19,42.805,6.029,CST-1368DR,4273,4759,11822,01.113,552
2023-06-30T08:23:21,42.805,6.029,CST-1368DR,4273,4761,11825,01.112,552
2023-06-30T08:26:22,42.805,6.029,CST-1368DR,4273,4760,11824,01.113,552
2023-06-30T08:29:24,42.805,6.029,CST-1368DR,4273,4760,11824,01.113,552
2023-06-30T08:32:26,42.805,6.029,CST-1368DR,4273,4760,11824,01.113,552
2023-06-30T08:35:28,42.805,6.029,CST-1368DR,4273,4760,11824,01.113,552
2023-06-30T08:38:29,42.805,6.029,CST-1368DR,4273,4761,11825,01.112,552
2023-06-30T08:41:31,42.805,6.029,CST-1368DR,4273,4761,11826,01.112,552
2023-06-30T08:44:32,42.805,6.029,CST-1368DR,4273,4760,11822,01.113,552
2023-06-30T08:47:34,42.805,6.029,CST-1368DR,4273,4760,11822,01.113,552
2023-06-30T08:50:35,42.805,6.029,CST-1368DR,4273,4760,11824,01.113,553
2023-06-30T08:53:37,42.805,6.029,CST-1368DR,4273,4760,11822,01.113,552
2023-06-30T08:56:39,42.805,6.029,CST-1368DR,4273,4759,11822,01.113,552
2023-06-30T08:59:40,42.805,6.029,CST-1368DR,4273,4760,11824,01.113,552
2023-06-30T09:02:42,42.805,6.029,CST-1368DR,4273,4760,11823,01.113,552
2023-06-30T09:05:43,42.805,6.029,CST-1368DR,4273,4760,11824,01.113,552
2023-06-30T09:08:45,42.805,6.029,CST-1368DR,4273,4760,11822,01.113,552
2023-06-30T09:11:47,42.805,6.029,CST-1368DR,4273,4760,11823,01.113,552
2023-06-30T09:14:48,42.805,6.029,CST-1368DR,4273,4759,11822,01.113,552
2023-06-30T09:17:50,42.805,6.029,CST-1368DR,4273,4760,11824,01.113,552
2023-06-30T09:20:51,42.805,6.029,CST-1368DR,4273,4760,11823,01.113,552
2023-06-30T09:23:53,42.805,6.029,CST-1368DR,4273,4760,11823,01.113,552
2023-06-30T09:26:54,42.805,6.029,CST-1368DR,4273,4760,11824,01.113,552
2023-06-30T09:29:56,42.805,6.029,CST-1368DR,4273,4760,11823,01.113,552
2023-06-30T09:32:58,42.805,6.029,CST-1368DR,4273,4760,11823,01.113,552
2023-06-30T09:35:59,42.805,6.029,CST-1368DR,4273,4760,11824,01.113,552
2023-06-30T09:39:01,42.805,6.029,CST-1368DR,4273,4760,11822,01.113,552
2023-06-30T09:42:02,42.805,6.029,CST-1368DR,4273,4759,11821,01.114,552
2023-06-30T09:45:04,42.805,6.029,CST-1368DR,4273,4759,11822,01.113,552
2023-06-30T09:48:05,42.805,6.029,CST-1368DR,4273,4760,11824,01.113,552
2023-06-30T09:51:07,42.805,6.029,CST-1368DR,4273,4760,11824,01.113,552
2023-06-30T09:54:09,42.805,6.029,CST-1368DR,4273,4758,11818,01.115,552
2023-06-30T09:57:10,42.805,6.029,CST-1368DR,4273,4759,11821,01.114,552
2023-06-30T10:00:12,42.805,6.029,CST-1368DR,4273,4760,11824,01.113,552
2023-06-30T10:03:13,42.805,6.029,CST-1368DR,4273,4759,11821,01.114,552
2023-06-30T10:06:15,42.805,6.029,CST-1368DR,4273,4757,11817,01.115,552
2023-06-30T10:09:17,42.805,6.029,CST-1368DR,4273,4759,11822,01.113,552
2023-06-30T10:12:18,42.805,6.029,CST-1368DR,4273,4760,11823,01.113,552
2023-06-30T10:15:20,42.805,6.029,CST-1368DR,4273,4759,11822,01.113,552
2023-06-30T10:18:21,42.805,6.029,CST-1368DR,4273,4757,11816,01.115,552
2023-06-30T10:21:23,42.805,6.029,CST-1368DR,4273,4759,11820,01.114,552
2023-06-30T10:24:24,42.805,6.029,CST-1368DR,4273,4759,11821,01.114,552
2023-06-30T10:27:26,42.805,6.029,CST-1368DR,4273,4759,11821,01.114,552
2023-06-30T10:30:29,42.805,6.029,CST-1368DR,4273,4758,11819,01.114,552
2023-06-30T10:33:30,42.805,6.029,CST-1368DR,4273,4759,11821,01.114,552
2023-06-30T10:36:32,42.805,6.029,CST-1368DR,4273,4758,11819,01.114,552
2023-06-30T10:39:33,42.805,6.029,CST-1368DR,4273,4758,11818,01.115,552
2023-06-30T10:42:35,42.805,6.029,CST-1368DR,4273,4759,11821,01.114,552
2023-06-30T10:45:36,42.805,6.029,CST-1368DR,4273,4759,11821,01.114,552
2023-06-30T10:48:38,42.805,6.029,CST-1368DR,4273,4758,11818,01.115,552
2023-06-30T10:51:40,42.805,6.029,CST-1368DR,4273,4759,11821,01.114,552
2023-06-30T10:54:41,42.805,6.029,CST-1368DR,4273,4759,11822,01.113,552
2023-06-30T10:57:43,42.805,6.029,CST-1368DR,4273,4759,11822,01.113,552
2023-06-30T11:00:44,42.805,6.029,CST-1368DR,4273,4759,11820,01.114,552
2023-06-30T11:03:46,42.805,6.029,CST-1368DR,4273,4760,11822,01.113,552
2023-06-30T11:06:48,42.805,6.029,CST-1368DR,4273,4760,11824,01.113,552
2023-06-30T11:09:49,42.805,6.029,CST-1368DR,4273,4760,11822,01.113,552
2023-06-30T11:12:51,42.805,6.029,CST-1368DR,4273,4760,11823,01.113,552
2023-06-30T11:15:52,42.805,6.029,CST-1368DR,4273,4759,11821,01.114,552
2023-06-30T11:18:54,42.805,6.029,CST-1368DR,4273,4760,11824,01.113,552
2023-06-30T11:21:55,42.805,6.029,CST-1368DR,4273,4760,11822,01.113,552
2023-06-30T11:24:57,42.805,6.029,CST-1368DR,4273,4759,11822,01.113,552
2023-06-30T11:27:59,42.805,6.029,CST-1368DR,4273,4759,11821,01.114,552
2023-06-30T11:31:00,42.805,6.029,CST-1368DR,4273,4760,11822,01.113,552
2023-06-30T11:34:02,42.805,6.029,CST-1368DR,4273,4759,11821,01.114,552
2023-06-30T11:37:03,42.805,6.029,CST-1368DR,4273,4759,11821,01.114,552
2023-06-30T11:40:05,42.805,6.029,CST-1368DR,4273,4759,11821,01.114,552
2023-06-30T11:43:07,42.805,6.029,CST-1368DR,4273,4759,11820,01.114,552
2023-06-30T11:46:08,42.805,6.029,CST-1368DR,4273,4759,11820,01.114,552
2023-06-30T11:49:10,42.805,6.029,CST-1368DR,4273,4759,11822,01.113,552
2023-06-30T11:52:11,42.805,6.029,CST-1368DR,4273,4759,11821,01.114,552
2023-06-30T11:55:13,42.805,6.029,CST-1368DR,4273,4759,11820,01.114,552
2023-06-30T11:58:14,42.805,6.029,CST-1368DR,4273,4758,11817,01.115,552
2023-06-30T12:01:16,42.805,6.029,CST-1368DR,4273,4759,11821,01.114,552
2023-06-30T12:04:18,42.805,6.029,CST-1368DR,4273,4759,11822,01.113,552
2023-06-30T12:07:19,42.805,6.029,CST-1368DR,4273,4759,11822,01.113,552
2023-06-30T12:10:21,42.805,6.029,CST-1368DR,4273,4759,11822,01.113,552
2023-06-30T12:13:22,42.805,6.029,CST-1368DR,4273,4759,11820,01.114,552
2023-06-30T12:16:24,42.805,6.029,CST-1368DR,4273,4757,11817,01.115,552
2023-06-30T12:19:26,42.805,6.029,CST-1368DR,4273,4759,11822,01.113,552
2023-06-30T12:22:27,42.805,6.029,CST-1368DR,4273,4759,11822,01.113,552
2023-06-30T12:25:29,42.805,6.029,CST-1368DR,4273,4759,11821,01.114,552
2023-06-30T12:28:30,42.805,6.029,CST-1368DR,4273,4760,11823,01.113,552
2023-06-30T12:31:32,42.805,6.029,CST-1368DR,4273,4759,11822,01.113,552
2023-06-30T12:34:33,42.805,6.029,CST-1368DR,4273,4759,11821,01.114,552
2023-06-30T12:37:35,42.805,6.029,CST-1368DR,4273,4759,11821,01.114,552
2023-06-30T12:40:37,42.805,6.029,CST-1368DR,4273,4760,11823,01.113,552
2023-06-30T12:43:38,42.805,6.029,CST-1368DR,4273,4759,11821,01.114,552
2023-06-30T12:46:40,42.805,6.029,CST-1368DR,4273,4760,11824,01.113,552
2023-06-30T12:49:41,42.805,6.029,CST-1368DR,4273,4758,11818,01.115,552
2023-06-30T12:52:43,42.805,6.029,CST-1368DR,4273,4759,11821,01.114,552
2023-06-30T12:55:44,42.805,6.029,CST-1368DR,4273,4759,11821,01.114,552
2023-06-30T12:58:46,42.805,6.029,CST-1368DR,4273,4759,11821,01.114,552
2023-06-30T13:01:48,42.805,6.029,CST-1368DR,4273,4759,11820,01.114,552
2023-06-30T13:04:49,42.805,6.029,CST-1368DR,4273,4758,11819,01.114,552
2023-06-30T13:07:51,42.805,6.029,CST-1368DR,4273,4759,11822,01.113,552
2023-06-30T13:10:52,42.805,6.029,CST-1368DR,4273,4759,11821,01.114,552
2023-06-30T13:13:54,42.805,6.029,CST-1368DR,4273,4759,11822,01.113,552
2023-06-30T13:16:56,42.805,6.029,CST-1368DR,4273,4759,11821,01.114,552
2023-06-30T13:19:57,42.805,6.029,CST-1368DR,4273,4759,11822,01.113,552
2023-06-30T13:22:59,42.805,6.029,CST-1368DR,4273,4760,11823,01.113,552
2023-06-30T13:26:00,42.805,6.029,CST-1368DR,4273,4759,11822,01.113,552
2023-06-30T13:29:02,42.805,6.029,CST-1368DR,4273,4759,11822,01.113,552
2023-06-30T13:32:03,42.805,6.029,CST-1368DR,4273,4760,11823,01.113,552
2023-06-30T13:35:05,42.805,6.029,CST-1368DR,4273,4759,11821,01.114,552
2023-06-30T13:38:07,42.805,6.029,CST-1368DR,4273,4759,11821,01.114,552
2023-06-30T13:41:08,42.805,6.029,CST-1368DR,4273,4760,11823,01.113,552
2023-06-30T13:44:10,42.805,6.029,CST-1368DR,4273,4759,11821,01.114,552
2023-06-30T13:47:11,42.805,6.029,CST-1368DR,4273,4759,11822,01.113,552
2023-06-30T13:50:13,42.805,6.029,CST-1368DR,4273,4760,11822,01.113,552
2023-06-30T13:53:14,42.805,6.029,CST-1368DR,4273,4759,11821,01.114,552
2023-06-30T13:56:16,42.805,6.029,CST-1368DR,4273,4759,11820,01.114,552
2023-06-30T13:59:18,42.805,6.029,CST-1368DR,4273,4759,11821,01.114,552
2023-06-30T14:02:19,42.805,6.029,CST-1368DR,4273,4759,11822,01.113,552
2023-06-30T14:05:21,42.805,6.029,CST-1368DR,4273,4758,11819,01.114,552
2023-06-30T14:08:22,42.805,6.029,CST-1368DR,4273,4759,11820,01.114,552
2023-06-30T14:11:24,42.805,6.029,CST-1368DR,4273,4759,11820,01.114,552
2023-06-30T14:14:25,42.805,6.029,CST-1368DR,4273,4759,11822,01.113,552
2023-06-30T14:17:27,42.805,6.029,CST-1368DR,4273,4759,11820,01.114,552
2023-06-30T14:20:29,42.805,6.029,CST-1368DR,4273,4759,11820,01.114,552
2023-06-30T14:23:30,42.805,6.029,CST-1368DR,4273,4759,11820,01.114,552
2023-06-30T14:26:32,42.805,6.029,CST-1368DR,4273,4759,11821,01.114,552
2023-06-30T14:29:33,42.805,6.029,CST-1368DR,4273,4759,11821,01.114,552
2023-06-30T14:32:35,42.805,6.029,CST-1368DR,4273,4758,11819,01.114,552
2023-06-30T14:35:37,42.805,6.029,CST-1368DR,4273,4758,11819,01.114,552
2023-06-30T14:38:38,42.805,6.029,CST-1368DR,4273,4759,11821,01.114,552
2023-06-30T14:41:40,42.805,6.029,CST-1368DR,4273,4759,11821,01.114,552
2023-06-30T14:44:41,42.805,6.029,CST-1368DR,4273,4758,11818,01.115,552
2023-06-30T14:47:43,42.805,6.029,CST-1368DR,4273,4758,11819,01.114,552
2023-06-30T14:50:44,42.805,6.029,CST-1368DR,4273,4759,11821,01.114,552
2023-06-30T14:53:46,42.805,6.029,CST-1368DR,4273,4759,11821,01.114,552
2023-06-30T14:56:48,42.805,6.029,CST-1368DR,4273,4759,11820,01.114,552
2023-06-30T14:59:49,42.805,6.029,CST-1368DR,4273,4757,11816,01.115,552
2023-06-30T15:02:51,42.805,6.029,CST-1368DR,4273,4759,11820,01.114,552
2023-06-30T15:05:52,42.805,6.029,CST-1368DR,4273,4759,11821,01.114,552
2023-06-30T15:08:54,42.805,6.029,CST-1368DR,4273,4759,11822,01.113,552
2023-06-30T15:11:55,42.805,6.029,CST-1368DR,4273,4758,11819,01.114,552
2023-06-30T15:14:57,42.805,6.029,CST-1368DR,4273,4758,11818,01.115,552
2023-06-30T15:17:59,42.805,6.029,CST-1368DR,4273,4759,11821,01.114,552
2023-06-30T15:21:00,42.805,6.029,CST-1368DR,4273,4758,11819,01.114,552
2023-06-30T15:24:02,42.805,6.029,CST-1368DR,4273,4757,11815,01.116,552
2023-06-30T15:27:03,42.805,6.029,CST-1368DR,4273,4758,11819,01.114,552
2023-06-30T15:30:05,42.805,6.029,CST-1368DR,4273,4758,11819,01.114,552
2023-06-30T15:33:07,42.805,6.029,CST-1368DR,4273,4759,11820,01.114,552
2023-06-30T15:36:08,42.805,6.029,CST-1368DR,4273,4757,11817,01.115,552
2023-06-30T15:39:10,42.805,6.029,CST-1368DR,4273,4758,11818,01.115,552
2023-06-30T15:42:11,42.805,6.029,CST-1368DR,4273,4757,11817,01.115,552
2023-06-30T15:45:13,42.805,6.029,CST-1368DR,4273,4759,11821,01.114,552
2023-06-30T15:48:14,42.805,6.029,CST-1368DR,4273,4759,11820,01.114,552
2023-06-30T15:51:16,42.805,6.029,CST-1368DR,4273,4758,11819,01.114,552
2023-06-30T15:54:18,42.805,6.029,CST-1368DR,4273,4758,11819,01.114,552
2023-06-30T15:57:19,42.805,6.029,CST-1368DR,4273,4758,11819,01.114,552
2023-06-30T16:00:21,42.805,6.029,CST-1368DR,4273,4759,11820,01.114,552
2023-06-30T16:03:22,42.805,6.029,CST-1368DR,4273,4758,11817,01.115,552
2023-06-30T16:06:24,42.805,6.029,CST-1368DR,4273,4757,11816,01.115,552
2023-06-30T16:09:26,42.805,6.029,CST-1368DR,4273,4758,11818,01.115,552
2023-06-30T16:12:27,42.805,6.029,CST-1368DR,4273,4759,11821,01.114,552
2023-06-30T16:15:29,42.805,6.029,CST-1368DR,4273,4758,11817,01.115,552
2023-06-30T16:18:30,42.805,6.029,CST-1368DR,4273,4758,11817,01.115,552
2023-06-30T16:21:32,42.805,6.029,CST-1368DR,4273,4758,11819,01.114,552
2023-06-30T16:24:33,42.805,6.029,CST-1368DR,4273,4759,11821,01.114,552
2023-06-30T16:27:35,42.805,6.029,CST-1368DR,4273,4757,11816,01.115,552
2023-06-30T16:30:38,42.805,6.029,CST-1368DR,4273,4757,11816,01.115,552
2023-06-30T16:33:39,42.805,6.029,CST-1368DR,4273,4758,11819,01.114,552
2023-06-30T16:36:41,42.805,6.029,CST-1368DR,4273,4759,11820,01.114,552